Glendive, MT

7:06 PM MDT on August 25, 2019 (GMT -0600)
Dawson Community

Weather History for KGDV - July, 2019

Change the Weather History Date:

Thursday, July 18, 2019

  Actual Average Record
Temperature  
Mean Temperature 72 °F -  
Max Temperature 86 °F - 100 °F (2004)
Min Temperature 58 °F - 50 °F (2015)
Cooling Degree Days 7    
Month to date cooling degree days 103  
Year to date cooling degree days 175  
Growing Degree Days 22 (Base 50)    
Moisture  
Dew Point 55 °F    
Average Humidity 57    
Maximum Humidity 90    
Minimum Humidity 34    
Precipitation  
Precipitation T in - 0.42 in (2000)
Month to date precipitation 2.18  
Year to date precipitation 7.83  
Sea Level Pressure  
Sea Level Pressure 29.66 in    
Wind  
Wind Speed 7 mph (West)    
Max Wind Speed 15 mph    
Max Gust Speed 22 mph    
Visibility 10 miles    
Events      
T = Trace of Precipitation, MM = Missing Value Source: NWS Daily Summary

Daily Weather History Graph

Daily Weather History Graph

Search for Another Location

Airport or City:

Astronomy

Jul. 18, 2019 Rise Set
Actual Time 5:21 AM MDT 8:48 PM MDT
Civil Twilight 4:43 AM MDT 9:26 PM MDT
Nautical Twilight 3:53 AM MDT 10:16 PM MDT
Astronomical Twilight 2:48 AM MDT 11:20 PM MDT
Moon 10:10 PM MDT (7/18) 6:56 AM MDT (7/18)
Length of Visible Light 16h 42m
Length of Day
15h 26m
Full, 97% of the Moon is Illuminated
Jul 18
Full
Jul 24
Last Quarter
Jul 31
New
Aug 7
First Quarter
Aug 15
Full

Hourly Weather History & Observations

Time (MDT) Temp. Heat Index Dew Point Humidity Pressure Visibility Wind Dir Wind Speed Gust Speed Precip Events Conditions
12:56 AM 63.0 °F - 60.1 °F 90% 29.66 in 10.0 mi Calm Calm - 0.00 in   Clear
1:56 AM 63.0 °F - 60.1 °F 90% 29.68 in 10.0 mi South 8.1 mph - N/A   Mostly Cloudy
2:56 AM 63.0 °F - 60.1 °F 90% 29.68 in 10.0 mi SW 6.9 mph - N/A   Mostly Cloudy
3:56 AM 62.1 °F - 57.0 °F 84% 29.70 in 10.0 mi WSW 3.5 mph - N/A   Partly Cloudy
4:56 AM 60.1 °F - 55.0 °F 83% 29.69 in 10.0 mi West 6.9 mph - N/A   Clear
5:56 AM 59.0 °F - 53.1 °F 81% 29.70 in 10.0 mi West 9.2 mph - N/A   Clear
6:56 AM 64.0 °F - 55.0 °F 73% 29.69 in 10.0 mi WNW 4.6 mph - N/A   Clear
7:56 AM 68.0 °F - 54.0 °F 61% 29.70 in 10.0 mi NW 9.2 mph - N/A   Clear
8:56 AM 72.0 °F - 52.0 °F 49% 29.70 in 10.0 mi WNW 4.6 mph - N/A   Clear
9:56 AM 75.9 °F - 52.0 °F 43% 29.68 in 10.0 mi West 8.1 mph - N/A   Clear
10:56 AM 78.1 °F - 54.0 °F 43% 29.68 in 10.0 mi WNW 11.5 mph - N/A   Mostly Cloudy
11:56 AM 79.0 °F - 54.0 °F 42% 29.67 in 10.0 mi WSW 10.4 mph - N/A   Clear
12:56 PM 81.0 °F 80.5 °F 54.0 °F 39% 29.66 in 10.0 mi SW 9.2 mph - N/A   Clear
1:56 PM 82.9 °F 81.9 °F 54.0 °F 37% 29.64 in 10.0 mi WSW 10.4 mph - N/A   Clear
2:56 PM 84.0 °F 82.5 °F 53.1 °F 34% 29.63 in 10.0 mi West 15.0 mph 21.9 mph N/A   Scattered Clouds
3:56 PM 84.9 °F 83.6 °F 55.0 °F 36% 29.62 in 10.0 mi West 13.8 mph 18.4 mph N/A   Partly Cloudy
4:56 PM 84.9 °F 83.3 °F 54.0 °F 34% 29.62 in 10.0 mi West 8.1 mph - N/A   Partly Cloudy
5:56 PM 84.9 °F 83.3 °F 54.0 °F 34% 29.60 in 10.0 mi West 6.9 mph - N/A   Partly Cloudy
6:56 PM 82.0 °F 81.7 °F 57.0 °F 42% 29.60 in 10.0 mi NW 8.1 mph - N/A   Clear
7:56 PM 78.1 °F - 61.0 °F 56% 29.61 in 10.0 mi SW 3.5 mph - 0.00 in   Partly Cloudy
8:56 PM 73.0 °F - 61.0 °F 66% 29.62 in 10.0 mi NW 6.9 mph - N/A   Mostly Cloudy
9:56 PM 71.1 °F - 53.1 °F 53% 29.66 in 10.0 mi NNW 10.4 mph - N/A   Partly Cloudy
10:56 PM 71.1 °F - 52.0 °F 51% 29.67 in 10.0 mi NNW 10.4 mph - N/A   Mostly Cloudy
11:56 PM 70.0 °F - 52.0 °F 53% 29.68 in 10.0 mi NNW 6.9 mph - N/A   Overcast